Theta_e
308 310 311 312 313 313 312 313 313 313 315 315 313 312 313 314 313 313 313 313 313 316 317 317 318 322 324 322 322 321 320 320 321 324 324 325 323 328 328 327 328 329 331 330 329 331 331 327 329 333 333 335 338 341
305 307 307 308 309 309 310 309 311 312 313 315 312 312 314 313 312 312 312 312 312 313 316 317 317 317 318 319 322 320 323 321 321 323 325 325 326 329 327 329 327 332 329 332 329 331 331 329 329 330 330 336 339 339
305 305 305 306 306 306 305 305 308 311 313 314 312 312 314 312 312 312 313 312 312 313 316 317 317 317 318 316 318 321 321 323 322 326 324 325 327 327 327 327 329 329 329 329 331 331 330 330 330 330 334 337 339 336
305 305 305 305 305 306 306 306 308 309 312 314 312 312 313 313 312 312 313 312 312 314 318 319 319 319 319 317 315 317 319 320 322 324 324 325 325 327 327 329 329 329 329 328 327 329 330 331 333 334 335 338 337 335
305 305 305 305 305 305 306 307 309 309 311 313 311 312 313 313 313 313 313 313 312 313 318 318 317 318 316 318 319 318 317 320 322 324 325 324 325 326 326 326 326 328 329 326 327 326 332 331 331 334 336 335 335 335
305 305 305 305 305 305 306 308 310 310 311 312 311 312 312 313 313 312 312 314 312 311 315 319 318 319 320 319 319 320 320 321 321 323 324 324 325 325 325 325 325 325 327 328 326 327 330 328 329 330 333 334 333 334
304 304 305 305 305 305 306 308 308 309 310 312 310 312 312 313 312 311 314 312 313 312 315 318 321 321 321 320 320 322 321 320 322 323 323 324 325 323 323 324 324 324 327 328 327 328 328 327 327 329 331 334 333 334
304 303 305 305 305 305 307 308 308 310 311 310 310 311 313 313 311 311 313 313 313 314 314 319 322 321 322 320 320 320 321 322 322 323 323 323 323 323 322 322 321 325 326 326 325 327 326 326 327 326 327 329 333 334
303 304 305 305 305 307 307 308 309 309 309 310 310 311 313 312 312 315 312 313 313 313 317 320 322 324 323 322 322 321 323 324 323 323 323 324 323 327 323 322 322 324 326 325 325 327 327 327 327 326 327 328 328 330
304 305 305 305 306 307 308 309 309 309 308 311 311 312 312 314 311 311 312 314 312 313 314 317 320 322 322 322 322 322 322 324 324 324 323 323 324 322 322 323 326 325 326 326 326 327 327 327 327 326 326 326 327 331
305 306 306 306 306 307 308 309 309 308 309 312 312 313 313 312 312 315 318 317 316 318 317 318 319 320 321 327 324 323 323 323 325 325 324 325 326 323 323 323 323 326 327 327 326 326 326 326 326 326 326 326 327 328
306 306 306 307 307 308 308 310 309 307 311 313 312 312 315 315 317 318 319 318 319 320 319 318 319 319 319 324 327 325 325 325 325 324 325 328 327 323 322 323 324 326 326 326 326 326 326 325 325 326 326 326 326 327
306 307 308 308 308 309 309 309 309 308 310 312 312 314 315 317 320 319 320 320 320 318 319 317 320 319 321 324 325 327 325 324 324 327 325 326 324 323 323 323 325 324 327 325 326 327 327 325 325 325 326 326 326 327
307 307 308 309 308 309 308 308 308 309 311 312 314 318 318 317 318 319 319 319 319 319 320 319 319 320 321 323 324 324 325 325 324 325 326 325 324 326 328 327 327 325 326 326 327 327 327 327 326 326 327 327 327 326
308 308 308 309 309 308 308 309 309 310 311 312 314 319 317 317 317 317 318 318 320 321 320 320 321 321 322 322 322 323 323 325 324 323 323 322 323 330 328 327 326 325 325 326 327 327 327 327 327 327 327 327 327 326
307 308 308 308 308 308 310 309 308 310 312 313 315 317 317 318 318 318 318 319 319 318 318 320 321 321 321 320 321 321 321 322 323 324 324 326 327 329 330 328 326 326 326 325 327 327 327 326 326 326 327 327 326 324
306 307 307 307 309 310 309 307 310 311 312 314 316 316 317 318 317 318 319 319 319 321 322 321 321 321 322 322 321 321 322 321 320 322 325 327 328 326 323 326 325 326 328 327 328 327 327 327 327 327 326 326 326 325
307 308 307 308 309 310 308 309 311 312 314 314 316 316 317 317 317 316 318 319 319 321 320 321 321 323 323 322 322 322 321 322 323 323 324 327 324 321 321 323 329 327 329 329 329 328 328 327 327 327 326 325 325 323
307 309 308 309 310 309 309 310 311 313 314 315 315 316 316 316 316 316 316 317 319 319 319 321 322 323 322 321 320 320 321 322 320 322 325 325 322 323 321 321 325 328 329 330 329 328 327 326 327 326 325 324 323 323
307 307 308 309 309 310 312 312 310 313 315 316 316 316 317 317 318 319 318 318 319 320 321 322 322 321 321 322 322 323 323 322 323 323 323 326 326 325 326 326 328 329 329 329 328 327 327 326 326 325 324 323 323 322
306 307 308 308 308 310 311 312 313 314 315 315 316 317 318 317 318 319 320 320 320 320 319 320 320 321 322 321 321 321 322 322 323 323 323 324 328 327 326 327 326 327 327 327 326 325 325 326 325 324 322 322 322 322
307 308 308 308 309 310 310 311 313 312 314 316 315 315 318 320 319 318 319 319 319 319 320 321 321 322 322 322 322 323 324 322 319 321 320 321 325 328 327 327 327 326 326 325 324 324 325 325 324 322 321 321 321 320
308 308 309 309 310 310 310 312 313 314 317 317 317 319 319 319 319 318 321 322 322 322 322 322 323 323 323 323 324 323 320 320 323 323 323 323 324 328 328 326 326 326 325 325 324 323 324 323 322 322 321 320 320 319
308 309 310 311 310 311 311 314 314 315 317 318 319 320 320 321 321 322 322 322 322 323 325 326 325 325 325 326 325 324 325 324 324 324 325 326 327 328 327 325 324 324 325 325 324 324 323 323 321 320 321 320 320 318
309 309 310 310 311 312 314 316 317 317 319 319 320 320 322 321 324 323 324 324 324 324 325 325 323 322 324 325 326 326 325 324 324 324 325 325 325 326 326 326 325 325 325 325 324 324 323 323 321 320 320 319 319 319
312 310 311 312 314 315 317 318 318 319 319 321 321 321 322 324 323 325 324 323 321 321 323 323 322 320 322 324 325 326 327 325 325 325 325 325 325 325 324 324 322 323 322 322 324 324 324 323 321 321 321 320 319 318
311 312 312 312 312 314 315 316 318 320 320 321 322 322 322 323 324 321 320 322 321 322 322 320 320 321 321 322 323 324 325 325 325 326 325 325 325 325 325 325 325 325 324 322 322 322 323 322 322 321 320 320 320 318
312 313 315 314 313 314 317 319 320 321 321 320 320 322 322 322 322 320 319 318 319 322 322 320 319 319 320 322 322 324 326 325 324 324 324 323 322 322 322 323 324 323 322 322 322 322 322 322 322 321 321 320 320 320
312 312 314 317 317 317 319 319 320 319 319 320 321 322 321 315 316 315 315 316 316 316 318 318 318 320 322 324 324 325 325 325 324 324 324 325 325 323 323 324 323 322 322 322 322 321 321 321 321 321 321 320 321 320
313 311 315 316 317 317 317 318 320 319 320 320 320 317 317 315 318 317 317 317 317 317 317 318 318 320 321 320 320 319 320 320 319 319 319 319 319 318 318 319 319 319 320 320 320 320 320 320 320 320 319 319 319 318
314 314 315 316 316 315 315 317 318 318 318 318 317 317 319 318 316 316 317 317 317 318 319 319 319 319 319 318 318 317 317 316 315 316 316 318 318 319 318 318 317 317 317 317 317 317 317 318 318 318 317 316 318 317
313 314 315 316 317 316 314 317 317 319 319 318 316 316 318 319 316 315 316 317 318 318 317 318 318 318 317 316 315 315 314 314 313 314 314 316 317 317 318 318 317 315 315 316 316 315 316 316 316 316 316 315 314 314
314 315 314 313 313 314 315 317 318 318 317 316 316 319 319 317 316 315 315 315 315 314 314 314 315 314 314 314 314 314 314 313 312 312 312 312 312 314 316 315 315 314 314 313 313 313 314 314 314 315 315 313 313 312
Wind_Speed
18 19 22 22 18 16 15 16 13 12 12 12 12 11 10 8 6 5 7 7 11 7 15 11 8 10 6 5 5 6 8 5 8 6 4 4 5 5 5 4 4 7 5 4 5 3 8 5 6 6 5 3 1 1
17 19 20 20 19 19 18 19 14 11 12 13 12 12 10 8 7 6 8 9 9 15 13 12 13 20 19 11 7 4 4 11 8 5 3 3 4 4 6 4 5 3 3 2 3 2 2 1 10 3 6 3 2 7
15 16 17 16 17 18 17 17 14 12 12 12 12 12 9 6 6 8 10 10 7 10 21 18 15 14 19 21 14 5 4 1 2 2 4 2 3 4 5 4 3 5 4 4 3 4 3 3 5 4 2 4 11 17
15 16 16 15 15 15 15 14 13 12 10 12 11 9 7 5 5 9 13 10 9 5 6 3 4 7 8 14 20 20 7 1 2 5 7 4 5 4 0 3 6 5 8 3 5 3 1 2 3 6 9 15 20 19
15 15 16 15 14 14 14 13 12 11 10 12 11 6 5 5 6 7 13 15 11 7 6 9 16 9 13 14 15 18 19 11 3 5 5 5 3 4 2 2 5 9 4 5 5 3 1 8 8 8 11 16 17 19
15 15 16 15 13 12 12 12 10 10 10 11 10 5 5 6 7 5 4 5 14 17 4 4 6 3 3 14 16 17 17 12 12 3 3 2 3 4 5 5 5 9 6 3 2 5 5 10 10 8 10 14 15 19
15 15 14 13 11 11 10 10 9 10 10 10 7 5 5 7 6 6 2 1 5 14 4 5 4 3 3 10 13 12 14 10 10 4 5 4 5 5 5 6 4 9 9 8 5 12 10 12 11 9 10 13 16 18
15 14 14 13 10 9 8 9 9 10 10 8 5 5 6 6 7 8 9 9 4 11 4 4 3 5 6 10 9 11 11 11 10 13 5 8 4 4 4 7 12 8 11 10 10 15 11 13 13 11 12 12 14 16
13 12 11 11 8 9 9 10 9 9 9 5 4 4 5 4 3 2 4 6 13 6 5 3 3 3 2 7 6 10 12 6 7 10 8 4 5 5 6 7 9 14 13 12 13 16 11 17 17 14 13 12 12 16
12 11 10 9 9 10 10 9 9 9 5 5 4 2 3 3 3 13 2 4 7 6 6 5 5 3 2 9 12 9 5 7 6 9 7 6 10 14 14 12 10 12 17 12 19 17 15 17 19 17 14 11 11 14
8 9 9 10 10 10 11 8 9 7 7 6 5 3 3 7 6 3 5 6 7 5 7 8 11 6 1 4 7 6 5 3 3 6 6 7 8 15 16 18 19 14 16 16 20 20 20 20 21 20 17 13 12 13
8 7 8 9 10 10 11 10 10 9 7 6 5 6 7 6 6 5 5 5 5 4 6 7 6 9 4 3 4 6 6 6 5 6 6 11 8 14 17 15 17 20 18 18 19 17 19 18 18 21 20 18 16 15
9 9 9 10 11 10 12 12 11 9 8 4 4 4 4 4 4 5 7 4 4 5 6 7 4 6 5 4 3 4 5 6 5 4 5 5 9 14 16 17 15 22 20 20 19 18 20 21 19 20 21 21 21 19
10 11 10 10 10 11 11 11 9 7 6 3 4 4 5 4 5 4 4 1 2 2 2 6 5 6 4 5 2 1 2 3 4 6 8 6 12 15 10 9 10 18 21 20 20 22 22 22 21 19 21 23 24 24
9 10 10 11 11 11 12 10 9 10 5 4 4 3 6 7 2 2 3 5 4 3 3 5 4 3 3 3 4 4 2 5 5 5 6 12 12 7 5 8 10 14 20 18 20 22 22 22 22 20 21 23 22 24
7 9 8 12 13 13 10 10 8 8 3 4 5 5 6 5 7 6 7 8 7 7 7 3 2 4 5 2 6 8 6 5 3 3 2 1 3 4 8 8 10 12 18 22 21 21 22 24 25 23 22 22 24 26
8 6 10 12 14 9 11 8 6 5 4 3 6 10 9 5 5 4 5 6 5 4 4 2 3 5 3 4 6 4 6 6 6 4 2 3 5 5 6 7 10 12 14 19 22 22 23 22 21 21 22 22 23 24
8 7 11 15 14 11 11 7 3 3 5 9 6 6 8 7 7 7 5 4 5 4 3 3 3 5 4 4 4 4 9 2 3 7 10 8 7 9 9 8 6 11 14 17 20 21 23 24 24 22 21 23 23 23
11 7 10 13 14 8 5 5 4 3 7 6 8 9 9 10 10 10 7 7 5 4 2 2 5 5 6 7 10 14 10 9 12 15 10 9 8 8 8 7 4 8 13 17 20 21 21 23 20 21 22 24 24 24
9 10 6 10 13 4 4 4 6 4 4 2 5 7 8 7 4 6 10 10 6 3 3 3 4 10 9 9 5 8 8 10 9 6 6 5 6 6 6 4 4 9 13 15 16 18 18 18 17 19 21 23 24 25
8 9 7 6 11 2 2 2 4 4 4 5 3 6 6 7 7 5 5 8 6 4 4 11 14 12 13 12 10 10 11 9 10 10 8 7 6 5 5 4 8 13 15 16 16 16 18 19 20 19 21 23 23 23
5 10 10 8 2 3 3 4 4 5 4 4 4 5 5 6 5 3 5 4 4 17 17 13 13 9 9 10 10 10 10 10 11 10 9 7 5 4 5 7 10 13 13 13 13 13 15 16 17 19 20 23 24 23
10 7 5 4 3 3 4 3 3 4 4 3 3 3 3 4 10 11 5 8 7 5 6 7 9 12 13 12 10 8 6 5 7 8 8 8 8 6 6 8 10 11 11 11 10 9 13 16 18 18 20 22 22 21
6 6 4 6 6 3 3 4 5 4 3 4 3 3 4 4 9 6 4 4 3 3 1 2 5 8 8 8 6 4 4 4 5 6 6 6 7 6 8 8 9 9 8 7 11 12 13 14 17 19 19 21 23 25
2 3 3 4 5 4 4 4 3 2 3 3 3 3 3 4 3 3 1 3 6 3 4 4 6 6 6 6 6 5 7 6 6 6 6 7 5 5 7 7 8 9 9 11 12 14 14 15 17 18 20 23 27 28
5 6 4 4 6 4 1 2 4 5 3 3 2 0 2 2 2 3 3 5 6 7 7 7 10 11 7 5 5 4 3 3 4 6 5 6 6 6 8 9 11 13 14 13 14 14 16 16 17 21 23 25 26 27
2 3 5 4 0 1 3 6 8 5 2 1 2 1 2 2 3 2 5 5 8 9 8 7 9 9 9 6 4 3 3 2 1 3 4 4 6 7 7 8 8 8 12 14 13 14 18 20 20 21 24 28 28 28
3 3 1 6 5 8 3 3 2 0 2 2 2 2 2 3 3 4 4 7 9 7 5 5 7 8 8 6 3 3 3 3 2 1 0 1 2 4 7 7 8 12 15 14 11 9 9 12 15 20 25 28 27 29
2 2 2 3 1 1 1 3 4 4 4 4 3 2 3 3 4 7 8 8 9 7 6 5 5 5 4 5 5 6 6 5 6 7 7 7 5 5 4 2 1 3 4 5 9 9 11 13 16 16 19 21 24 25
3 5 3 1 2 4 4 4 4 3 3 3 3 7 6 5 7 7 6 7 7 7 6 6 6 5 6 7 10 12 11 11 11 9 8 8 8 7 7 7 6 4 2 1 3 6 9 11 12 15 16 16 19 26
1 2 2 1 3 1 6 4 1 1 1 4 8 5 4 3 5 8 8 8 9 9 10 11 12 12 12 11 10 10 10 12 12 10 6 4 2 3 4 5 5 4 3 2 1 1 3 4 5 7 8 11 14 21
3 2 2 1 3 4 4 2 1 1 3 5 5 2 2 3 4 6 7 7 7 8 9 9 10 11 10 10 10 10 10 9 10 12 14 10 4 1 0 2 4 4 5 5 4 3 2 1 2 3 5 6 8 10
3 5 5 5 3 2 1 2 2 3 6 6 4 2 1 5 6 4 5 5 6 7 7 8 9 11 13 12 12 13 12 11 12 12 12 13 15 11 8 6 5 5 4 4 4 4 4 3 3 1 3 5 6 6
Wind_Direction
266 267 275 279 283 285 288 287 287 294 302 303 308 310 303 297 270 246 272 256 217 252 266 260 249 259 256 228 237 128 159 183 188 207 219 170 246 185 244 261 265 249 212 245 276 255 259 116 161 236 20 3 322 175
271 272 273 274 277 276 276 279 278 277 290 298 305 305 300 290 243 226 250 272 249 240 255 271 249 245 242 245 289 222 335 169 171 198 206 169 207 177 250 223 185 241 282 277 270 357 42 272 263 310 328 324 146 136
279 279 279 276 274 274 276 272 268 265 277 286 297 298 300 284 234 224 243 270 273 268 285 258 258 261 246 241 230 272 197 299 228 139 160 207 215 232 204 211 211 190 187 261 274 119 290 272 243 248 158 113 121 126
282 284 284 280 274 272 266 264 262 257 274 288 295 298 295 269 243 235 232 260 235 275 276 281 240 250 244 229 225 224 247 274 228 169 209 205 224 213 179 58 274 45 166 217 245 229 268 142 143 136 131 129 129 129
284 286 287 284 272 266 263 258 251 255 264 282 295 293 293 280 260 246 244 249 243 220 318 295 299 280 231 212 209 215 220 229 257 190 209 211 104 183 200 243 219 191 167 235 47 108 333 121 118 122 131 139 138 132
282 286 288 285 271 259 257 248 247 234 257 270 282 271 287 284 284 256 277 262 236 220 270 283 310 284 229 200 198 204 207 213 233 197 230 166 128 237 213 224 224 195 202 223 96 151 129 137 118 112 130 149 139 141
282 285 288 282 268 253 243 244 227 231 254 276 283 260 283 285 274 208 239 159 196 184 246 278 256 178 158 166 179 181 190 204 205 198 245 208 172 214 267 260 242 208 207 190 163 154 154 164 147 122 122 142 145 144
284 284 286 280 254 237 223 231 226 229 247 270 265 258 274 277 284 265 246 251 236 177 246 273 267 203 181 179 172 186 183 184 166 215 251 238 156 227 249 260 258 225 192 182 187 190 182 172 157 138 132 147 159 158
285 288 277 266 228 220 220 228 226 230 253 242 264 268 263 241 226 217 232 219 174 185 286 250 286 108 191 183 181 176 193 180 165 215 230 251 221 215 221 259 257 220 199 196 190 187 184 177 171 161 152 150 160 170
285 272 262 238 213 212 218 223 222 225 222 219 234 205 226 174 164 134 93 135 179 216 231 255 260 264 293 192 190 168 176 202 203 207 162 234 243 240 252 254 262 243 217 198 178 183 184 187 181 177 172 159 153 160
273 269 239 212 207 214 217 220 209 204 204 197 198 179 151 152 173 227 198 201 189 225 214 235 233 256 158 240 184 193 175 156 221 185 218 232 235 239 243 245 243 238 213 208 202 194 190 189 189 187 179 168 158 157
254 222 215 210 218 217 208 216 204 197 195 198 177 173 169 194 205 228 198 179 218 237 182 230 210 212 209 232 223 178 198 182 222 151 221 235 238 240 236 237 236 223 216 212 207 203 192 185 188 188 184 175 167 158
234 230 228 228 217 215 214 208 201 206 203 201 206 190 189 198 230 221 189 190 203 204 188 196 179 185 197 232 219 188 212 210 130 207 233 236 219 220 235 246 235 216 217 210 207 201 191 181 182 185 184 179 173 167
236 228 233 221 216 206 198 193 196 194 176 187 209 204 219 199 235 214 231 222 162 256 245 207 185 197 179 183 116 286 7 188 216 227 233 226 212 229 229 219 216 212 208 204 200 193 185 182 181 182 184 180 176 176
228 224 213 209 204 187 182 190 193 185 168 223 224 217 228 243 243 232 251 247 234 217 196 180 203 196 195 187 173 126 269 241 225 236 248 253 230 232 269 250 229 207 203 199 193 190 188 185 181 181 181 184 182 180
201 203 201 184 181 172 187 181 188 180 205 231 226 252 225 238 238 222 238 252 251 247 213 193 196 194 192 227 188 195 204 230 193 220 278 193 235 265 270 265 231 215 205 203 196 191 188 186 187 187 181 182 184 188
181 184 182 177 174 177 174 175 166 197 233 227 228 235 260 290 277 273 239 255 236 223 218 192 227 208 145 203 213 223 229 253 231 268 255 264 276 295 317 294 231 211 196 195 195 190 189 185 180 178 179 182 184 188
169 166 184 178 175 178 175 191 200 228 239 234 245 239 227 246 257 268 258 243 237 213 214 224 261 223 225 224 222 227 227 253 318 318 307 297 293 292 301 311 250 207 199 186 186 186 182 180 182 186 182 178 178 183
170 159 174 176 185 161 170 198 209 253 247 253 248 253 253 255 251 242 242 249 232 230 234 243 245 235 235 256 284 283 260 297 296 293 281 300 297 294 295 289 249 200 189 180 176 177 180 184 184 182 180 178 179 180
178 177 144 178 176 164 203 207 199 249 266 255 250 244 234 242 230 226 223 221 222 204 234 233 257 273 280 282 336 290 284 293 270 263 282 282 302 315 297 253 204 187 176 175 175 176 176 177 180 181 182 180 179 180
174 174 168 173 187 220 242 250 233 242 281 253 258 249 245 221 229 234 205 186 186 211 242 252 261 271 286 292 294 294 293 276 244 251 278 296 305 286 282 247 215 181 173 172 177 179 180 185 184 184 187 183 185 184
178 173 170 182 172 206 252 238 261 299 270 274 284 240 246 210 154 170 163 205 233 243 233 250 259 271 286 287 278 280 274 263 249 249 257 261 282 269 232 203 184 183 179 177 181 190 189 191 189 190 187 184 181 182
169 167 146 148 193 214 256 231 242 230 243 213 214 235 238 189 174 184 222 216 230 216 219 249 270 277 279 283 284 292 310 270 240 247 251 251 251 231 201 188 181 180 181 180 176 191 193 194 192 184 184 184 182 184
156 172 196 188 197 225 228 226 216 252 255 233 220 211 195 179 158 203 246 185 179 160 169 316 311 302 288 263 268 263 262 263 246 242 241 236 216 203 191 187 197 186 183 194 192 195 195 192 196 186 188 189 190 193
172 211 220 203 192 225 220 205 211 246 248 227 249 215 161 171 208 214 140 80 34 25 5 359 343 341 309 297 290 281 265 235 241 240 231 203 207 192 192 186 189 193 196 202 205 203 204 201 206 201 205 208 209 211
220 203 223 218 196 228 201 218 219 223 231 237 235 306 191 217 210 86 57 8 4 358 350 338 341 337 328 305 310 328 309 282 240 230 224 213 215 230 231 230 234 232 234 230 219 210 209 209 211 215 215 217 221 222
242 194 212 227 225 322 286 254 259 265 255 354 18 41 51 35 61 45 354 356 337 329 324 342 338 335 323 313 318 326 330 345 128 204 225 225 219 227 231 234 230 219 231 228 223 225 230 234 228 218 216 214 219 218
256 265 232 156 208 218 267 271 254 111 70 27 291 44 57 35 51 360 343 334 340 349 345 353 335 351 11 42 87 34 17 49 35 38 155 106 237 240 242 245 242 244 234 229 234 241 234 246 242 236 238 237 235 230
247 250 278 268 194 255 316 343 23 46 19 4 19 47 71 59 357 349 354 353 342 346 347 345 345 12 22 42 67 74 61 46 41 40 71 65 80 58 59 62 240 197 208 230 213 216 228 239 243 247 250 248 247 237
183 197 259 70 40 21 9 355 22 40 34 52 79 104 94 53 24 15 24 25 31 31 30 39 48 68 73 70 80 78 74 71 70 66 65 64 70 69 64 62 60 67 78 193 226 237 235 240 241 239 237 235 235 217
206 209 257 125 136 237 342 329 277 345 74 118 122 105 99 115 63 38 42 44 51 68 70 72 76 76 76 76 78 77 65 53 48 44 50 45 37 55 66 54 43 51 64 84 111 177 212 205 220 228 236 241 249 233
205 236 266 132 101 338 342 45 145 85 108 123 121 162 303 133 74 53 36 56 68 70 67 71 72 64 67 63 59 55 65 60 57 47 44 36 21 217 239 26 45 54 67 68 67 73 94 135 225 233 236 238 254 248
149 107 63 16 348 344 140 102 60 88 86 130 202 241 80 68 72 76 49 64 76 70 69 73 80 82 78 70 69 56 57 55 48 39 37 41 47 65 71 74 75 79 75 71 63 59 60 59 38 332 257 258 255 217